TimeCST,TemperatureF,Dew PointF,Humidity,Sea Level PressureIn,VisibilityMPH,Wind Direction,Wind SpeedMPH,Gust SpeedMPH,PrecipitationIn,Events,Conditions,WindDirDegrees,DateUTC
12:53 AM,57.9,55.9,93,29.84,4.0,Calm,Calm,-,N/A,,Overcast,0,2012-12-08 06:53:00
1:53 AM,59.0,57.0,93,29.83,4.0,Calm,Calm,-,N/A,,Overcast,0,2012-12-08 07:53:00
2:53 AM,57.9,57.0,97,29.83,3.0,Calm,Calm,-,N/A,,Overcast,0,2012-12-08 08:53:00
3:53 AM,57.9,55.9,93,29.83,3.0,Calm,Calm,-,N/A,,Overcast,0,2012-12-08 09:53:00
5:08 AM,57.0,55.9,96,29.85,2.0,Calm,Calm,-,N/A,,Mostly Cloudy,0,2012-12-08 11:08:00
5:16 AM,55.9,55.9,100,29.85,1.0,Calm,Calm,-,N/A,,Mostly Cloudy,0,2012-12-08 11:16:00
5:23 AM,57.0,55.9,96,29.85,0.8,Calm,Calm,-,N/A,,Mostly Cloudy,0,2012-12-08 11:23:00
5:40 AM,57.0,55.9,96,29.85,2.0,Calm,Calm,-,N/A,,Overcast,0,2012-12-08 11:40:00
5:49 AM,57.2,55.4,94,29.85,4.0,Calm,Calm,-,N/A,,Overcast,0,2012-12-08 11:49:00
5:53 AM,55.9,55.0,97,29.85,3.0,Calm,Calm,-,N/A,,Overcast,0,2012-12-08 11:53:00
6:19 AM,57.0,55.9,96,29.86,2.5,Calm,Calm,-,N/A,,Overcast,0,2012-12-08 12:19:00
6:32 AM,55.9,55.0,97,29.87,0.8,NW,3.5,-,N/A,,Overcast,320,2012-12-08 12:32:00
6:41 AM,55.9,55.0,97,29.87,1.8,Calm,Calm,-,N/A,,Overcast,0,2012-12-08 12:41:00
6:53 AM,55.9,55.0,97,29.87,2.0,Calm,Calm,-,N/A,,Overcast,0,2012-12-08 12:53:00
7:20 AM,55.9,55.0,97,29.89,2.0,Calm,Calm,-,N/A,,Overcast,0,2012-12-08 13:20:00
7:53 AM,57.0,55.9,96,29.88,1.8,Calm,Calm,-,N/A,,Overcast,0,2012-12-08 13:53:00
8:09 AM,57.0,55.9,96,29.89,2.5,Calm,Calm,-,N/A,,Overcast,0,2012-12-08 14:09:00
8:31 AM,57.9,55.9,93,29.89,3.0,NW,3.5,-,N/A,,Overcast,320,2012-12-08 14:31:00
8:53 AM,59.0,54.0,83,29.89,4.0,North,3.5,-,N/A,,Haze,360,2012-12-08 14:53:00
9:53 AM,62.1,53.1,72,29.90,5.0,Calm,Calm,-,N/A,,Haze,0,2012-12-08 15:53:00
10:53 AM,64.0,55.0,73,29.88,5.0,Calm,Calm,-,N/A,,Haze,0,2012-12-08 16:53:00
11:53 AM,69.1,54.0,58,29.85,10.0,Calm,Calm,-,N/A,,Mostly Cloudy,0,2012-12-08 17:53:00
12:53 PM,70.0,52.0,53,29.83,10.0,West,5.8,-,N/A,,Overcast,260,2012-12-08 18:53:00
1:53 PM,70.0,53.1,55,29.81,10.0,SSW,3.5,-,N/A,,Overcast,210,2012-12-08 19:53:00
2:53 PM,70.0,55.0,59,29.80,10.0,South,4.6,-,N/A,,Overcast,190,2012-12-08 20:53:00
3:53 PM,70.0,55.0,59,29.80,10.0,South,3.5,-,N/A,,Overcast,190,2012-12-08 21:53:00
4:53 PM,69.1,55.9,63,29.79,10.0,Calm,Calm,-,N/A,,Overcast,0,2012-12-08 22:53:00
6:17 PM,66.9,57.0,70,29.81,10.0,SE,3.5,-,N/A,,Mostly Cloudy,140,2012-12-09 00:17:00
6:39 PM,66.9,57.0,70,29.81,10.0,SSE,3.5,-,N/A,,Mostly Cloudy,160,2012-12-09 00:39:00
6:53 PM,66.0,57.0,73,29.80,10.0,Calm,Calm,-,N/A,,Mostly Cloudy,0,2012-12-09 00:53:00
7:53 PM,63.0,57.0,81,29.81,8.0,Calm,Calm,-,N/A,,Mostly Cloudy,0,2012-12-09 01:53:00
8:53 PM,59.0,55.9,90,29.81,7.0,Calm,Calm,-,N/A,,Mostly Cloudy,0,2012-12-09 02:53:00
9:53 PM,57.9,55.9,93,29.80,8.0,Calm,Calm,-,N/A,,Scattered Clouds,0,2012-12-09 03:53:00
10:53 PM,55.9,54.0,93,29.79,6.0,Calm,Calm,-,N/A,,Partly Cloudy,0,2012-12-09 04:53:00
11:46 PM,60.1,57.9,93,29.79,6.0,Calm,Calm,-,N/A,,Mostly Cloudy,0,2012-12-09 05:46:00
11:53 PM,59.0,57.9,96,29.78,5.0,Calm,Calm,-,N/A,,Mostly Cloudy,0,2012-12-09 05:53:00